When you browse on this site, cookies collect data to enhance your experience and personalize the content and advertising you see.
Visit our Privacy Policy to learn more. By continuing to use the site, you agree to this use of cookies and data.
  • In Deutschland
  • Länderverzeichnis
  • Für 7 Tage
  • Wassertemperatur
  • Satellitenkarten
  • Wetterkarte
  • Widgets
  • user-avatar
    Anmelden

    Stündliche Wetter Ivanchenki

    Heute, 18 Januar, Freitag

    Zeit Temperatur Niederschläge Wind Luftdruck Luftfeuchtigkeit
    00:00 -2°C° 0.1 mm 6 m/S 725 mmHg 89%
    01:00 -2°C° 0.1 mm 6 m/S 725 mmHg 88%
    02:00 -2°C° 0 mm 6 m/S 726 mmHg 88%
    03:00 -2°C° 0.1 mm 6 m/S 726 mmHg 88%
    04:00 -2°C° 0.1 mm 6 m/S 726 mmHg 87%
    05:00 -2°C° 0.1 mm 6 m/S 727 mmHg 87%
    06:00 -2°C° 0.1 mm 6 m/S 727 mmHg 87%
    07:00 -1°C° 0.1 mm 5 m/S 728 mmHg 88%
    08:00 -2°C° 0 mm 5 m/S 728 mmHg 88%
    09:00 -2°C° 0.1 mm 5 m/S 728 mmHg 89%
    10:00 -2°C° 0.1 mm 5 m/S 729 mmHg 89%
    11:00 -2°C° 0.1 mm 5 m/S 729 mmHg 90%
    12:00 -2°C° 0.3 mm 4 m/S 729 mmHg 90%
    13:00 -2°C° 0.3 mm 4 m/S 729 mmHg 91%
    14:00 -1°C° 0.3 mm 4 m/S 729 mmHg 91%
    15:00 -2°C° 1.2 mm 4 m/S 728 mmHg 92%
    16:00 -2°C° 1.2 mm 4 m/S 728 mmHg 93%
    17:00 -2°C° 1.2 mm 4 m/S 728 mmHg 93%
    18:00 -4°C° 0.5 mm 4 m/S 729 mmHg 93%
    19:00 -7°C° 0.5 mm 4 m/S 729 mmHg 93%
    20:00 -9°C° 0.5 mm 4 m/S 729 mmHg 92%
    21:00 -9°C° 0.1 mm 3 m/S 730 mmHg 92%
    22:00 -10°C° 0.1 mm 3 m/S 731 mmHg 92%
    23:00 -10°C° 0.1 mm 3 m/S 732 mmHg 92%

    Morgen, 19 Januar, Samstag

    Zeit Temperatur Niederschläge Wind Luftdruck Luftfeuchtigkeit
    00:00 -12°C° 0 mm 3 m/S 733 mmHg 93%
    01:00 -13°C° 0 mm 3 m/S 733 mmHg 95%
    02:00 -14°C° 0 mm 3 m/S 734 mmHg 96%
    03:00 -13°C° 0 mm 3 m/S 734 mmHg 96%
    04:00 -13°C° 0 mm 3 m/S 734 mmHg 96%
    05:00 -12°C° 0 mm 4 m/S 734 mmHg 96%
    06:00 -12°C° 0 mm 4 m/S 734 mmHg 94%
    07:00 -11°C° 0 mm 4 m/S 735 mmHg 93%
    08:00 -11°C° 0 mm 4 m/S 735 mmHg 91%
    09:00 -10°C° 0.1 mm 4 m/S 735 mmHg 90%
    10:00 -9°C° 0.1 mm 4 m/S 736 mmHg 89%
    11:00 -8°C° 0.1 mm 5 m/S 736 mmHg 87%
    12:00 -8°C° 0.1 mm 5 m/S 736 mmHg 87%
    13:00 -7°C° 0.1 mm 5 m/S 736 mmHg 87%
    14:00 -7°C° 0.1 mm 5 m/S 737 mmHg 88%
    15:00 -7°C° 0.1 mm 5 m/S 737 mmHg 88%
    16:00 -8°C° 0.1 mm 4 m/S 738 mmHg 89%
    17:00 -8°C° 0.1 mm 4 m/S 738 mmHg 90%
    18:00 -8°C° 0 mm 4 m/S 738 mmHg 90%
    19:00 -8°C° 0 mm 4 m/S 738 mmHg 90%
    20:00 -8°C° 0 mm 4 m/S 739 mmHg 91%
    21:00 -8°C° 0 mm 4 m/S 739 mmHg 91%
    22:00 -8°C° 0 mm 4 m/S 739 mmHg 91%
    23:00 -8°C° 0 mm 4 m/S 739 mmHg 92%

    übermorgen, 20 Januar, Sonntag

    Zeit Temperatur Niederschläge Wind Luftdruck Luftfeuchtigkeit
    00:00 -9°C° 0 mm 4 m/S 739 mmHg 92%
    01:00 -10°C° 0 mm 4 m/S 739 mmHg 93%
    02:00 -10°C° 0 mm 4 m/S 739 mmHg 94%
    03:00 -10°C° 0 mm 4 m/S 739 mmHg 93%
    04:00 -11°C° 0 mm 5 m/S 738 mmHg 92%
    05:00 -11°C° 0 mm 5 m/S 738 mmHg 91%
    06:00 -10°C° 0.1 mm 5 m/S 738 mmHg 90%
    07:00 -9°C° 0.1 mm 6 m/S 737 mmHg 89%
    08:00 -8°C° 0.1 mm 6 m/S 737 mmHg 87%
    09:00 -8°C° 0.2 mm 6 m/S 736 mmHg 87%
    10:00 -6°C° 0.2 mm 6 m/S 736 mmHg 86%
    11:00 -6°C° 0.2 mm 7 m/S 736 mmHg 86%
    12:00 -5°C° 0.4 mm 6 m/S 736 mmHg 87%
    13:00 -5°C° 0.4 mm 6 m/S 735 mmHg 88%
    14:00 -5°C° 0.4 mm 6 m/S 735 mmHg 89%
    15:00 -6°C° 0.4 mm 5 m/S 735 mmHg 89%
    16:00 -7°C° 0.4 mm 4 m/S 735 mmHg 89%
    17:00 -7°C° 0.4 mm 3 m/S 736 mmHg 89%
    18:00 -8°C° 0 mm 3 m/S 736 mmHg 90%
    19:00 -9°C° 0 mm 3 m/S 736 mmHg 91%
    20:00 -10°C° 0 mm 3 m/S 736 mmHg 92%
    21:00 -12°C° 0 mm 3 m/S 737 mmHg 94%
    22:00 -13°C° 0 mm 2 m/S 737 mmHg 95%
    23:00 -14°C° 0 mm 2 m/S 737 mmHg 97%

    21 Januar, Montag

    Zeit Temperatur Niederschläge Wind Luftdruck Luftfeuchtigkeit
    00:00 -15°C° 0 mm 2 m/S 737 mmHg 97%
    01:00 -16°C° 0 mm 2 m/S 737 mmHg 98%
    02:00 -16°C° 0 mm 2 m/S 737 mmHg 98%
    03:00 -17°C° 0 mm 2 m/S 737 mmHg 99%
    04:00 -17°C° 0 mm 2 m/S 737 mmHg 99%
    05:00 -18°C° 0 mm 2 m/S 737 mmHg 99%
    06:00 -17°C° 0 mm 2 m/S 738 mmHg 98%
    07:00 -16°C° 0 mm 2 m/S 738 mmHg 97%
    08:00 -15°C° 0 mm 2 m/S 738 mmHg 97%
    09:00 -14°C° 0 mm 2 m/S 738 mmHg 95%
    10:00 -14°C° 0 mm 3 m/S 738 mmHg 94%
    11:00 -14°C° 0 mm 3 m/S 739 mmHg 93%
    12:00 -13°C° 0 mm 3 m/S 739 mmHg 91%
    13:00 -13°C° 0 mm 3 m/S 739 mmHg 90%
    14:00 -14°C° 0 mm 4 m/S 739 mmHg 88%
    15:00 -14°C° 0 mm 3 m/S 739 mmHg 89%
    16:00 -15°C° 0 mm 3 m/S 740 mmHg 91%
    17:00 -15°C° 0 mm 3 m/S 740 mmHg 92%
    18:00 -16°C° 0 mm 3 m/S 740 mmHg 93%
    19:00 -17°C° 0 mm 3 m/S 740 mmHg 94%
    20:00 -17°C° 0 mm 3 m/S 741 mmHg 95%
    21:00 -17°C° 0 mm 3 m/S 741 mmHg 96%
    22:00 -17°C° 0 mm 2 m/S 741 mmHg 97%
    23:00 -17°C° 0 mm 2 m/S 741 mmHg 97%

    22 Januar, Dienstag

    Zeit Temperatur Niederschläge Wind Luftdruck Luftfeuchtigkeit
    00:00 -18°C° 0 mm 2 m/S 741 mmHg 98%
    01:00 -18°C° 0 mm 2 m/S 741 mmHg 98%
    02:00 -16°C° 0 mm 1 m/S 741 mmHg 98%
    03:00 -16°C° 0 mm 1 m/S 741 mmHg 98%
    04:00 -16°C° 0 mm 1 m/S 741 mmHg 98%
    05:00 -15°C° 0 mm 1 m/S 741 mmHg 98%
    06:00 -15°C° 0 mm 1 m/S 741 mmHg 98%
    07:00 -15°C° 0 mm 1 m/S 741 mmHg 98%
    08:00 -14°C° 0 mm 1 m/S 741 mmHg 98%
    09:00 -13°C° 0 mm 1 m/S 741 mmHg 97%
    10:00 -12°C° 0 mm 1 m/S 741 mmHg 97%
    11:00 -10°C° 0 mm 1 m/S 741 mmHg 96%
    12:00 -10°C° 0 mm 1 m/S 741 mmHg 95%
    13:00 -9°C° 0 mm 1 m/S 741 mmHg 94%
    14:00 -8°C° 0 mm 1 m/S 741 mmHg 94%
    15:00 -9°C° 0 mm 1 m/S 741 mmHg 95%
    16:00 -9°C° 0 mm 1 m/S 741 mmHg 96%
    17:00 -10°C° 0 mm 1 m/S 741 mmHg 97%
    18:00 -10°C° 0 mm 1 m/S 741 mmHg 97%
    19:00 -10°C° 0 mm 1 m/S 741 mmHg 97%
    20:00 -10°C° 0 mm 1 m/S 741 mmHg 97%
    21:00 -10°C° 0 mm 1 m/S 741 mmHg 97%
    22:00 -11°C° 0 mm 1 m/S 740 mmHg 97%
    23:00 -11°C° 0 mm 1 m/S 740 mmHg 97%

    23 Januar, Mittwoch

    Zeit Temperatur Niederschläge Wind Luftdruck Luftfeuchtigkeit
    00:00 -11°C° 0 mm 1 m/S 740 mmHg 97%
    01:00 -10°C° 0 mm 1 m/S 740 mmHg 97%
    02:00 -12°C° 0 mm 2 m/S 740 mmHg 97%
    03:00 -10°C° 0 mm 2 m/S 740 mmHg 97%
    04:00 -10°C° 0 mm 2 m/S 740 mmHg 97%
    05:00 -9°C° 0 mm 2 m/S 740 mmHg 96%
    06:00 -9°C° 0 mm 2 m/S 740 mmHg 96%
    07:00 -10°C° 0 mm 3 m/S 740 mmHg 95%
    08:00 -10°C° 0 mm 3 m/S 740 mmHg 95%
    09:00 -10°C° 0 mm 3 m/S 740 mmHg 94%
    10:00 -12°C° 0 mm 3 m/S 740 mmHg 92%
    11:00 -12°C° 0 mm 3 m/S 741 mmHg 91%
    12:00 -12°C° 0 mm 3 m/S 740 mmHg 91%
    13:00 -13°C° 0 mm 3 m/S 740 mmHg 90%
    14:00 -13°C° 0 mm 3 m/S 740 mmHg 89%
    15:00 -13°C° 0 mm 3 m/S 740 mmHg 90%
    16:00 -13°C° 0 mm 3 m/S 740 mmHg 91%
    17:00 -12°C° 0 mm 3 m/S 741 mmHg 92%
    18:00 -13°C° 0 mm 3 m/S 741 mmHg 92%
    19:00 -13°C° 0 mm 3 m/S 741 mmHg 92%
    20:00 -13°C° 0 mm 3 m/S 741 mmHg 92%
    21:00 -14°C° 0 mm 3 m/S 741 mmHg 91%
    22:00 -15°C° 0 mm 3 m/S 741 mmHg 90%
    23:00 -17°C° 0 mm 3 m/S 741 mmHg 89%
    Mehr zeigen